Rbgn^[z[y[W
メイン
   新天体発見情報
     Comet C/2020 H8 (PANSTARRS)
投稿するにはまず登録を

スレッド表示 | 新しいものから 前のトピック | 次のトピック | 下へ
投稿者 スレッド
佐藤裕久
投稿日時: 2020-6-26 1:17
モデレータ
登録日: 2005-6-12
居住地: 日本
投稿: 2111
オンライン
Comet C/2020 H8 (PANSTARRS)

R. Weryk (ハワイ大学, 天文学研究所)の通報によると、4月30日、R. Wainscoatが、
HaleakalaにあるPan-STARRS2 1.8-m Ritchey-Chretien反射望遠鏡で得た画像から明らかな
彗星を発見した。2".1のシーイングで2".5の拡散したコマがあるようであった。明らかな
尾はないが、彗星の外観は不明確である。
小惑星センターのPCCP webpageに公表後、佐藤英貴氏(東京都文京区, iTelescope天文台, 
0.43-m f/6.8 アストログラフ, Mayhill近郊, カリフォルニア州, 遠隔操作)は、5月4.5日
UT, 60秒露出14枚のスタックで、恒星状に見えた。5".7の円形範囲で測定した光度は19.4等
であった。
E. Bryssinck (0.4-m f/3.8 反射望遠鏡, Kruibeke, ベルギー, 5月14.9日UT、フィルター
なし120秒露出25枚のスタックで、強い集光で恒星のような天体に見え(コマを確実には確認
できなかった)、p.a.346°に向かって14"に伸びた尾の気配があった。5"の範囲で測定した
光度は20.5等であった)らCCD位置観測者によって彗星状と観測された。

彗星機能の追加報告は次の通り:

OC   Date        Reporter           Coma    Tail    PA          Exposures
F65  2020-05-14  P. Breitenstein     3"      16"     20          4x100s
B96  2020-05-14  E. Bryssinck        6"      14"    346         25x120s
246  2020-05-17  M. Tichy            6"                           25s
568  2020-05-20  R. Weryk            1"      15"     20          3x60s

発見位置は次のとおり、

     2020 UT             R.A. (2000) Decl.       Mag.
     Apr. 30.57673   18 27 15.99   +38 23 39.8   20.7
          30.58927   18 27 15.24   +38 23 41.2   20.4
          30.60184   18 27 14.50   +38 23 42.8   20.4

MPCの暫定放物線軌道要素と位置推算表は次のとおり、

Orbital elements:
    C/2020 H8 (PANSTARRS)                                                       
T 2020 June 6.72067 TT                                  Rudenko                 
q   4.6784461            (2000.0)            P               Q                  
                   Peri.  129.21917     -0.11211069     -0.38528926             
                   Node    68.32245     -0.88713159     -0.37648098             
e   1.0            Incl.   99.71156     +0.44769269     -0.84250475             
From 123 observations 2020 Apr. 30-May 21.                                      
                                                                                
Ephemeris:
Date    TT    R. A. (2000) Decl.     Delta      r    Elong.  Phase   m1
2020 04 21    18 35 27.6 +37 58 45   4.4473  4.6932    98.0    12.2  20.5
...
2020 05 06    18 21 45.6 +38 32 27   4.2998  4.6853   106.4    11.9  20.4
...
2020 05 14    18 12 35.2 +38 36 14   4.2319  4.6823   110.5    11.7  20.3
...
2020 05 20    18 04 58.9 +38 30 29   4.1876  4.6806   113.3    11.5  20.3
2020 05 21    18 03 39.8 +38 28 44   4.1808  4.6803   113.7    11.4  20.3
2020 05 22    18 02 19.8 +38 26 44   4.1743  4.6801   114.1    11.4  20.3
...
2020 05 28    17 54 05.2 +38 09 26   4.1391  4.6791   116.4    11.2  20.3
...
2020 06 05    17 42 38.8 +37 31 27   4.1044  4.6785   118.8    11.0  20.3
...
2020 06 20    17 21 03.5 +35 32 27   4.0815  4.6796   120.5    10.8  20.3

(MPEC 2020-K110、CBET 4778)

スレッド表示 | 新しいものから 前のトピック | 次のトピック | トップ

投稿するにはまず登録を
 
© 1999 Tsutomu Seki.